Weather reports worldwide

Advertisment
Bolzano, Italy (16020): temperature & dewpoint: 17.01.2019 03:00:00 - 23.01.2019 03:00:00 (CET)Bolzano, Italy (16020): wind speed: 17.01.2019 03:00:00 - 23.01.2019 03:00:00 (CET)Bolzano, Italy (16020): wind direction: 17.01.2019 03:00:00 - 23.01.2019 03:00:00 (CET)Bolzano, Italy (16020): reduced air pressure: 17.01.2019 03:00:00 - 23.01.2019 03:00:00 (CET)Bolzano, Italy (16020): visibility: 17.01.2019 03:00:00 - 23.01.2019 03:00:00 (CET)Bolzano, Italy (16020): precipitation: 17.01.2019 03:00:00 - 23.01.2019 03:00:00 (CET)
Date & Time tt [°C] td [°C] ff [km/h] ff [kn] dd ppp [hPa] vv [km] rr [mm]
23.01.2019 03:00:00 - - - - - - - -
23.01.2019 02:00:00 - - - - - - - -
23.01.2019 01:00:00 -3,8 -7,5 2 1 WNW 1002,6 - 0,0
23.01.2019 00:00:00 - - - - - - - -
22.01.2019 23:00:00 -1,0 -8,0 5 3 - - 10 -
22.01.2019 22:00:00 -3,8 -7,1 0 0 N 1004,4 10 -
22.01.2019 21:00:00 -3,0 -8,0 5 3 N - 10 -
22.01.2019 20:00:00 -3,0 -8,0 0 0 N - 10 -
22.01.2019 19:00:00 -3,3 -8,2 0 0 N 1005,2 10 0,0
22.01.2019 18:00:00 - - - - - - - -
22.01.2019 17:00:00 2,0 -9,0 5 3 - - 10 -
22.01.2019 16:00:00 3,1 -9,0 0 0 N 1004,9 10 -
22.01.2019 15:00:00 - - - - - - - -
22.01.2019 14:00:00 5,0 -9,0 2 1 - - 10 -
22.01.2019 13:00:00 4,6 -8,9 5 3 - 1009,0 10 0,0
22.01.2019 12:00:00 3,0 -8,0 2 1 - - 10 -
22.01.2019 11:00:00 1,0 -9,0 2 1 - - 10 -
22.01.2019 10:00:00 -0,5 -6,8 5 3 - 1013,5 10 -
22.01.2019 09:00:00 -6,0 -9,0 4 2 - - 10 -
22.01.2019 08:00:00 -6,0 -9,0 5 3 - - 10 -
22.01.2019 07:00:00 -6,3 -9,7 8 4 SE 1015,2 10 0,0
22.01.2019 06:00:00 - - - - - - - -
22.01.2019 05:00:00 - - - - - - - -
22.01.2019 04:00:00 -4,2 -8,1 2 1 SE 1016,2 - -
22.01.2019 03:00:00 - - - - - - - -
22.01.2019 02:00:00 - - - - - - - -
22.01.2019 01:00:00 -6,1 -8,5 2 1 ESE 1018,0 - 0,0
22.01.2019 00:00:00 - - - - - - - -
21.01.2019 23:00:00 -5,0 -8,0 0 0 N - 10 -
21.01.2019 22:00:00 -4,4 -8,4 2 1 - 1018,5 10 -
21.01.2019 21:00:00 -4,0 -9,0 0 0 N - 10 -
21.01.2019 20:00:00 -3,0 -8,0 0 0 N - 10 -
21.01.2019 19:00:00 -1,7 -8,2 0 0 N 1017,5 10 0,0
21.01.2019 18:00:00 1,0 -9,0 0 0 N - 10 -
21.01.2019 17:00:00 3,0 -8,0 2 1 - - 10 -
21.01.2019 16:00:00 3,4 -8,4 4 2 - 1016,7 10 -
21.01.2019 15:00:00 5,0 -10,0 2 1 - - 10 -
21.01.2019 14:00:00 5,0 -10,0 4 2 - - 10 -
21.01.2019 13:00:00 4,2 -9,2 5 3 - 1018,9 10 0,0
21.01.2019 12:00:00 2,0 -8,0 2 1 - - 10 -
21.01.2019 11:00:00 0,0 -8,0 4 2 - - 10 -
21.01.2019 10:00:00 -1,7 -7,2 2 1 - 1022,1 10 -
21.01.2019 09:00:00 -4,0 -8,0 0 0 N - 10 -
21.01.2019 08:00:00 -4,0 -8,0 2 1 - - 10 -
21.01.2019 07:00:00 -6,7 -8,5 0 0 N 1021,8 10 0,0
21.01.2019 06:00:00 - - - - - - - -
21.01.2019 05:00:00 - - - - - - - -
21.01.2019 04:00:00 -6,2 -8,1 2 1 SSW 1020,9 - -
21.01.2019 03:00:00 - - - - - - - -
21.01.2019 02:00:00 - - - - - - - -
21.01.2019 01:00:00 -6,0 -8,7 2 1 NNW 1020,6 - 0,0
21.01.2019 00:00:00 - - - - - - - -
20.01.2019 23:00:00 -3,0 -7,0 0 0 N - 10 -
20.01.2019 22:00:00 -5,2 -7,8 0 0 N 1019,5 10 -
20.01.2019 21:00:00 -1,0 -7,0 4 2 - - 10 -
20.01.2019 20:00:00 -3,0 -7,0 2 1 WNW - 10 -
20.01.2019 19:00:00 -2,1 -7,7 0 0 N 1017,4 10 0,0
20.01.2019 18:00:00 2,0 -9,0 0 0 N - 10 -
20.01.2019 17:00:00 3,0 -10,0 2 1 - - 10 -
20.01.2019 16:00:00 3,6 -8,7 5 3 WSW 1015,0 10 -
20.01.2019 15:00:00 5,0 -8,0 4 2 - - 10 -
20.01.2019 14:00:00 - - - - - - - -
20.01.2019 13:00:00 3,5 -7,8 0 0 N 1016,1 10 0,0
20.01.2019 12:00:00 2,0 -7,0 2 1 - - 10 -
20.01.2019 11:00:00 1,0 -7,0 0 0 N - 10 -
20.01.2019 10:00:00 -0,7 -6,7 0 0 N 1018,2 10 -
20.01.2019 09:00:00 -5,0 -8,0 4 2 - - 10 -
20.01.2019 08:00:00 -5,0 -8,0 0 0 N - 10 -
20.01.2019 07:00:00 -5,8 -8,0 2 1 - 1017,7 10 0,0
20.01.2019 06:00:00 - - - - - - - -
20.01.2019 05:00:00 - - - - - - - -
20.01.2019 04:00:00 -4,3 -6,7 0 0 N 1017,4 - -
20.01.2019 03:00:00 - - - - - - - -
20.01.2019 02:00:00 - - - - - - - -
20.01.2019 01:00:00 -5,1 -7,4 2 1 WSW 1017,9 - 0,0
20.01.2019 00:00:00 - - - - - - - -
19.01.2019 23:00:00 -3,0 -7,0 0 0 N - 10 -
19.01.2019 22:00:00 -2,9 -7,2 2 1 - 1017,5 10 -
19.01.2019 21:00:00 -2,0 -6,0 0 0 N - 10 -
19.01.2019 20:00:00 -1,0 -7,0 4 2 N - 10 -
19.01.2019 19:00:00 -0,4 -7,1 2 1 - 1016,3 10 0,0
19.01.2019 18:00:00 1,0 -7,0 4 2 - - 10 -
19.01.2019 17:00:00 4,0 -8,0 5 3 SSE - 10 -
19.01.2019 16:00:00 5,3 -8,4 5 3 - 1015,1 10 -
19.01.2019 15:00:00 6,0 -8,0 5 3 - - 10 -
19.01.2019 14:00:00 5,0 -8,0 5 3 - - 10 -
19.01.2019 13:00:00 4,6 -8,8 0 0 N 1016,9 10 0,0
19.01.2019 12:00:00 4,0 -9,0 2 1 - - 10 -
19.01.2019 11:00:00 3,0 -10,0 0 0 N - 10 -
19.01.2019 10:00:00 1,8 -10,4 5 3 - 1019,1 10 -
19.01.2019 09:00:00 1,0 -10,0 4 2 - - 10 -
19.01.2019 08:00:00 1,0 -9,0 2 1 - - 10 -
19.01.2019 07:00:00 0,7 -8,0 0 0 N 1018,7 10 0,0
19.01.2019 06:00:00 - - - - - - - -
19.01.2019 05:00:00 - - - - - - - -
19.01.2019 04:00:00 2,0 -9,5 4 2 N 1018,9 - -
19.01.2019 03:00:00 - - - - - - - -
19.01.2019 02:00:00 - - - - - - - -
19.01.2019 01:00:00 1,6 -7,2 4 2 N 1019,2 - 0,0
19.01.2019 00:00:00 - - - - - - - -
18.01.2019 23:00:00 2,0 -7,0 5 3 - - 10 -
18.01.2019 22:00:00 1,5 -9,2 0 0 N 1018,8 10 -
18.01.2019 21:00:00 3,0 -9,0 0 0 N - 10 -
18.01.2019 20:00:00 4,0 -9,0 5 3 ESE - 10 -
18.01.2019 19:00:00 4,3 -10,2 13 7 N 1016,9 10 0,0
18.01.2019 18:00:00 6,0 -10,0 5 3 NNE - 10 -
18.01.2019 17:00:00 7,0 -12,0 16 9 NNW - 10 -
18.01.2019 16:00:00 8,0 -14,0 16 9 N 1014,3 10 -
18.01.2019 15:00:00 10,0 -15,0 15 8 N - 10 -
18.01.2019 14:00:00 10,0 -12,0 21 11 NE - 10 -
18.01.2019 13:00:00 9,7 -10,0 11 6 NNE 1014,0 10 0,0
18.01.2019 12:00:00 9,0 -6,0 18 10 N - 10 -
18.01.2019 11:00:00 6,0 -1,0 5 3 - - 10 -
18.01.2019 10:00:00 4,0 -0,2 4 2 SE 1014,8 10 -
18.01.2019 09:00:00 0,0 -1,0 5 3 SE - 10 -
18.01.2019 08:00:00 0,0 0,0 4 2 - - 10 -
18.01.2019 07:00:00 -0,4 -1,0 0 0 N 1012,9 10 -
18.01.2019 06:00:00 - - - - - - - -
18.01.2019 05:00:00 - - - - - - - -
18.01.2019 04:00:00 0,6 0,1 5 3 NNW 1011,3 - -
18.01.2019 03:00:00 - - - - - - - -
18.01.2019 02:00:00 - - - - - - - -
18.01.2019 01:00:00 2,3 1,2 4 2 SE 1011,7 - -
18.01.2019 00:00:00 - - - - - - - -
17.01.2019 23:00:00 3,0 1,0 0 0 N - 10 -
17.01.2019 22:00:00 2,8 0,1 0 0 N 1011,7 10 -
17.01.2019 21:00:00 3,0 0,0 2 1 - - 10 -
17.01.2019 20:00:00 3,0 0,0 2 1 - - 10 -
17.01.2019 19:00:00 3,3 -0,4 0 0 N 1012,6 10 0,0
17.01.2019 18:00:00 4,0 -1,0 4 2 SSE - 10 -
17.01.2019 17:00:00 4,0 -1,0 0 0 N - 10 -
17.01.2019 16:00:00 5,0 -1,0 4 2 SSE - 10 -
17.01.2019 15:00:00 6,0 -1,0 2 1 - - 10 -
17.01.2019 14:00:00 6,0 -2,0 0 0 N - 10 -
17.01.2019 13:00:00 4,7 -2,4 2 1 - 1014,7 10 0,0
17.01.2019 12:00:00 4,0 -2,0 4 2 SSE - 10 -
17.01.2019 11:00:00 3,0 -2,0 0 0 N - 10 -
17.01.2019 10:00:00 3,1 -1,6 2 1 - 1016,9 10 -
17.01.2019 09:00:00 2,0 -2,0 2 1 - - 10 -
17.01.2019 08:00:00 2,0 -2,0 2 1 - - 10 -
17.01.2019 07:00:00 2,1 -2,9 2 1 - 1016,7 10 0,0
17.01.2019 06:00:00 - - - - - - - -
17.01.2019 05:00:00 - - - - - - - -
17.01.2019 04:00:00 2,4 -2,9 4 2 N 1017,7 - -
17.01.2019 03:00:00 - - - - - - - -

tt = temperature
td = dewpoint
ff = wind speed
dd = wind direction
ppp = reduced air pressure
vv = visibility
rr = precipitation

Next stations